Temp
-13 -13 -12 -12 -13 -12 -12 -12 -13 -12 -12 -12 -12 -13 -12 -12 -12 -13 -12 -12 -12 -12 -13 -14 -14 -15 -15 -15 -15 -14 -15 -14 -14 -14 -14 -14 -14 -14 -14 -14 -14 -14 -14
-13 -12 -13 -12 -12 -12 -12 -12 -13 -13 -12 -12 -12 -13 -13 -13 -13 -12 -13 -12 -12 -13 -13 -14 -15 -16 -16 -15 -15 -15 -15 -15 -15 -15 -15 -15 -14 -14 -14 -14 -14 -14 -14
-12 -12 -12 -12 -12 -12 -12 -12 -12 -12 -12 -12 -12 -13 -13 -13 -13 -12 -12 -13 -13 -13 -13 -15 -16 -16 -15 -16 -16 -15 -15 -15 -15 -15 -15 -15 -14 -14 -14 -14 -15 -14 -15
-12 -11 -12 -12 -12 -12 -12 -12 -12 -12 -12 -12 -13 -13 -13 -13 -12 -12 -12 -13 -13 -14 -15 -16 -16 -17 -17 -16 -16 -16 -16 -16 -15 -15 -15 -14 -14 -15 -15 -15 -15 -15 -15
-12 -12 -12 -12 -12 -12 -12 -12 -12 -13 -13 -13 -13 -12 -13 -13 -13 -13 -13 -13 -13 -14 -15 -16 -17 -17 -17 -17 -17 -16 -16 -16 -16 -15 -15 -15 -15 -15 -15 -15 -15 -15 -15
-12 -12 -12 -12 -12 -12 -12 -12 -12 -12 -12 -13 -13 -13 -13 -13 -13 -13 -13 -14 -14 -14 -15 -16 -17 -18 -17 -18 -17 -17 -16 -16 -15 -15 -15 -15 -15 -15 -15 -15 -15 -15 -15
-12 -12 -12 -12 -12 -12 -11 -12 -12 -12 -12 -12 -13 -13 -13 -13 -13 -13 -14 -14 -14 -15 -16 -16 -17 -17 -17 -17 -17 -16 -16 -16 -16 -15 -15 -15 -15 -15 -15 -15 -15 -15 -15
-12 -12 -12 -13 -13 -13 -13 -13 -13 -12 -12 -12 -13 -13 -13 -13 -13 -13 -14 -14 -15 -16 -16 -16 -16 -17 -17 -16 -17 -16 -16 -16 -16 -16 -15 -16 -16 -15 -16 -15 -15 -15 -15
-13 -12 -12 -13 -13 -13 -13 -13 -12 -12 -12 -13 -13 -13 -13 -14 -13 -14 -14 -15 -15 -15 -16 -17 -17 -16 -16 -16 -16 -16 -16 -16 -16 -15 -15 -15 -15 -15 -15 -15 -16 -16 -16
-12 -12 -12 -12 -12 -13 -13 -13 -13 -13 -12 -14 -13 -14 -14 -14 -14 -14 -15 -15 -15 -15 -16 -16 -16 -16 -16 -16 -16 -16 -16 -16 -16 -15 -15 -16 -15 -15 -16 -16 -16 -16 -16
-13 -13 -13 -13 -13 -13 -13 -13 -13 -12 -13 -13 -14 -14 -15 -14 -14 -14 -15 -16 -15 -16 -16 -16 -16 -16 -16 -16 -16 -16 -16 -16 -16 -16 -15 -16 -16 -16 -16 -16 -16 -16 -16
-12 -13 -13 -13 -14 -14 -13 -14 -13 -13 -14 -14 -14 -14 -15 -15 -15 -15 -16 -16 -16 -16 -15 -16 -16 -16 -16 -16 -15 -15 -16 -16 -16 -16 -16 -16 -16 -16 -16 -16 -16 -16 -16
-13 -13 -13 -13 -13 -13 -14 -14 -14 -14 -14 -14 -14 -15 -15 -15 -16 -15 -15 -15 -15 -15 -16 -16 -16 -16 -16 -16 -16 -16 -15 -16 -16 -16 -16 -16 -16 -16 -16 -16 -16 -16 -16
-13 -13 -13 -13 -12 -12 -13 -14 -14 -14 -14 -14 -15 -15 -15 -15 -15 -16 -16 -16 -15 -15 -15 -16 -16 -16 -15 -15 -15 -16 -15 -16 -16 -16 -16 -16 -16 -16 -16 -16 -16 -16 -17
-13 -13 -13 -13 -13 -13 -14 -14 -14 -14 -14 -15 -15 -15 -15 -15 -15 -15 -16 -16 -16 -16 -16 -16 -15 -16 -16 -15 -15 -15 -16 -16 -16 -16 -16 -16 -16 -16 -16 -16 -16 -17 -17
-13 -13 -13 -13 -13 -13 -13 -14 -14 -14 -15 -15 -15 -15 -15 -15 -15 -16 -16 -16 -16 -15 -14 -16 -16 -16 -16 -15 -16 -16 -16 -16 -16 -16 -16 -16 -16 -16 -16 -17 -17 -17 -17
-13 -13 -13 -14 -14 -14 -14 -14 -14 -14 -14 -14 -14 -14 -15 -15 -16 -16 -16 -16 -15 -15 -15 -15 -15 -16 -16 -15 -15 -16 -16 -16 -16 -16 -16 -16 -16 -16 -17 -17 -17 -17 -18
-14 -14 -14 -14 -14 -14 -14 -14 -14 -14 -15 -15 -15 -15 -15 -15 -15 -16 -16 -16 -16 -16 -15 -15 -15 -16 -16 -16 -15 -16 -16 -16 -16 -16 -16 -16 -17 -17 -17 -17 -18 -18 -18
-15 -15 -15 -15 -14 -14 -14 -14 -14 -15 -15 -15 -15 -15 -16 -15 -16 -16 -16 -16 -17 -16 -15 -15 -16 -15 -16 -16 -16 -16 -16 -16 -16 -16 -16 -16 -17 -17 -18 -17 -18 -18 -18
-15 -15 -15 -15 -15 -15 -15 -15 -15 -15 -15 -15 -15 -15 -15 -15 -16 -16 -16 -16 -16 -16 -16 -16 -16 -15 -15 -15 -15 -16 -16 -16 -16 -16 -16 -16 -16 -17 -18 -18 -17 -18 -18
-15 -15 -15 -15 -15 -15 -15 -15 -15 -15 -15 -15 -15 -15 -15 -15 -15 -16 -16 -16 -16 -16 -15 -15 -15 -15 -15 -15 -16 -16 -16 -16 -16 -16 -17 -16 -17 -17 -17 -17 -17 -18 -18
-16 -16 -16 -15 -15 -16 -16 -16 -16 -16 -16 -16 -16 -16 -16 -16 -16 -16 -16 -16 -16 -16 -16 -16 -16 -16 -16 -15 -16 -16 -16 -17 -16 -16 -17 -16 -17 -17 -18 -18 -18 -18 -18
-16 -16 -16 -16 -15 -16 -16 -17 -17 -16 -16 -16 -16 -16 -16 -16 -16 -16 -16 -16 -16 -16 -16 -16 -16 -16 -15 -15 -16 -16 -16 -17 -16 -17 -17 -17 -17 -17 -18 -18 -17 -18 -19
-16 -16 -16 -16 -16 -16 -16 -16 -17 -16 -16 -17 -16 -16 -16 -16 -16 -16 -16 -16 -16 -16 -16 -16 -16 -16 -16 -16 -16 -16 -16 -16 -17 -17 -17 -17 -18 -18 -18 -18 -18 -18 -19
-15 -16 -16 -16 -16 -16 -16 -16 -17 -17 -17 -17 -17 -16 -17 -17 -17 -17 -16 -16 -16 -16 -16 -16 -16 -16 -16 -16 -16 -17 -17 -17 -18 -18 -18 -17 -18 -18 -18 -19 -19 -19 -19
-15 -15 -15 -16 -16 -17 -16 -16 -17 -17 -17 -17 -17 -16 -16 -16 -16 -16 -17 -16 -16 -16 -16 -16 -16 -16 -16 -16 -16 -17 -17 -17 -18 -17 -18 -18 -19 -19 -18 -19 -19 -20 -20
Height
5762 5768 5774 5779 5781 5786 5791 5794 5797 5801 5804 5804 5809 5816 5812 5818 5819 5821 5822 5821 5822 5821 5821 5823 5824 5825 5826 5827 5828 5829 5830 5831 5831 5832 5832 5832 5832 5831 5830 5829 5828 5827 5824
5759 5767 5772 5775 5776 5781 5786 5789 5791 5796 5799 5800 5805 5812 5809 5814 5815 5816 5817 5817 5816 5816 5816 5818 5819 5820 5822 5823 5823 5825 5826 5826 5827 5828 5827 5827 5826 5827 5825 5823 5822 5821 5819
5758 5763 5768 5771 5774 5778 5781 5783 5785 5791 5793 5796 5801 5806 5808 5808 5810 5811 5812 5812 5810 5811 5812 5813 5814 5815 5817 5818 5819 5821 5821 5822 5822 5822 5822 5821 5820 5820 5819 5818 5817 5814 5812
5755 5760 5764 5768 5771 5774 5776 5778 5780 5786 5789 5792 5795 5799 5805 5804 5805 5806 5806 5806 5806 5806 5806 5807 5809 5811 5812 5813 5814 5815 5815 5816 5816 5816 5817 5816 5815 5814 5813 5812 5811 5808 5806
5753 5756 5760 5764 5767 5769 5769 5771 5775 5781 5784 5788 5791 5792 5796 5800 5797 5801 5801 5800 5800 5799 5800 5802 5803 5804 5806 5808 5809 5810 5810 5810 5810 5810 5810 5810 5810 5808 5806 5805 5803 5801 5799
5750 5752 5756 5759 5761 5761 5764 5766 5772 5776 5779 5781 5785 5787 5788 5791 5795 5792 5793 5794 5794 5794 5794 5795 5797 5798 5800 5801 5804 5804 5804 5805 5805 5805 5805 5804 5802 5800 5798 5797 5795 5794 5792
5745 5748 5750 5752 5754 5753 5757 5762 5766 5771 5773 5775 5777 5780 5782 5784 5786 5788 5787 5785 5786 5787 5788 5789 5791 5792 5793 5795 5798 5798 5799 5799 5799 5799 5798 5796 5794 5792 5790 5788 5787 5785 5784
5741 5743 5745 5747 5748 5750 5751 5756 5760 5763 5765 5768 5772 5775 5778 5780 5779 5779 5781 5781 5780 5781 5781 5784 5787 5787 5789 5791 5792 5793 5792 5793 5793 5792 5790 5789 5786 5785 5782 5781 5779 5776 5774
5733 5737 5741 5744 5746 5749 5749 5751 5754 5756 5757 5759 5767 5771 5771 5772 5772 5774 5774 5775 5775 5777 5779 5781 5781 5782 5784 5785 5786 5786 5786 5786 5785 5783 5782 5781 5780 5779 5777 5775 5773 5770 5767
5730 5734 5737 5740 5742 5745 5747 5748 5750 5751 5752 5756 5760 5763 5764 5765 5767 5768 5768 5770 5771 5772 5773 5775 5776 5777 5778 5779 5780 5780 5779 5779 5778 5776 5774 5773 5771 5768 5766 5764 5763 5761 5758
5728 5731 5734 5736 5737 5740 5743 5745 5745 5747 5749 5751 5754 5756 5757 5759 5760 5763 5764 5764 5766 5766 5768 5769 5768 5769 5771 5772 5773 5774 5773 5771 5770 5768 5765 5764 5763 5760 5758 5754 5752 5750 5746
5724 5729 5729 5731 5733 5735 5737 5739 5739 5740 5743 5745 5748 5750 5752 5754 5754 5756 5758 5759 5761 5761 5761 5761 5762 5763 5764 5763 5762 5763 5762 5762 5760 5758 5756 5754 5751 5749 5746 5744 5742 5740 5738
5721 5723 5723 5726 5729 5729 5730 5731 5732 5734 5736 5739 5741 5744 5745 5747 5749 5750 5752 5753 5752 5753 5756 5756 5754 5754 5754 5754 5754 5753 5751 5749 5747 5746 5746 5743 5740 5738 5735 5733 5730 5728 5726
5715 5717 5719 5721 5723 5723 5724 5726 5728 5730 5732 5733 5734 5737 5739 5740 5742 5744 5746 5745 5744 5744 5744 5747 5746 5747 5746 5745 5744 5742 5740 5738 5735 5732 5731 5730 5728 5727 5724 5721 5718 5715 5713
5711 5713 5715 5717 5718 5717 5718 5721 5723 5724 5725 5726 5729 5730 5732 5734 5735 5737 5738 5738 5737 5737 5736 5738 5736 5737 5735 5733 5731 5729 5728 5726 5724 5721 5719 5718 5715 5714 5711 5708 5704 5701 5699
5710 5711 5712 5713 5714 5714 5715 5715 5715 5716 5716 5718 5720 5722 5725 5726 5728 5729 5730 5730 5729 5727 5727 5731 5729 5727 5725 5725 5723 5720 5716 5713 5711 5710 5707 5706 5703 5701 5699 5696 5691 5688 5685
5705 5706 5707 5709 5710 5709 5710 5711 5712 5711 5711 5712 5714 5716 5717 5718 5719 5720 5721 5721 5720 5718 5715 5719 5718 5718 5716 5713 5711 5708 5705 5702 5699 5696 5694 5693 5690 5688 5686 5682 5678 5674 5670
5703 5704 5704 5705 5705 5705 5707 5707 5707 5707 5708 5709 5710 5709 5711 5710 5710 5712 5713 5713 5711 5710 5707 5705 5705 5706 5703 5701 5697 5694 5692 5691 5689 5685 5683 5680 5678 5676 5671 5667 5662 5657 5652
5700 5700 5700 5700 5701 5701 5701 5700 5700 5701 5702 5702 5702 5701 5703 5702 5703 5703 5703 5701 5700 5698 5696 5693 5694 5692 5691 5690 5686 5682 5680 5677 5675 5672 5669 5667 5664 5660 5657 5651 5645 5641 5637
5693 5694 5695 5696 5695 5696 5696 5696 5695 5694 5694 5693 5693 5693 5693 5693 5693 5693 5691 5690 5688 5686 5684 5681 5680 5680 5676 5675 5672 5669 5666 5663 5661 5658 5656 5654 5648 5643 5640 5635 5630 5625 5619
5685 5685 5685 5686 5687 5687 5688 5687 5686 5685 5685 5685 5684 5684 5683 5683 5682 5681 5680 5679 5676 5673 5671 5669 5667 5666 5663 5662 5659 5655 5652 5647 5646 5643 5641 5638 5633 5628 5624 5621 5616 5608 5602
5678 5677 5677 5676 5676 5676 5677 5676 5675 5675 5674 5673 5673 5672 5671 5670 5670 5668 5666 5664 5662 5660 5658 5655 5654 5651 5649 5648 5645 5641 5637 5633 5629 5629 5624 5619 5618 5614 5609 5606 5599 5593 5587
5669 5670 5669 5669 5670 5669 5667 5666 5664 5662 5662 5662 5662 5661 5661 5661 5659 5657 5655 5652 5648 5645 5644 5642 5639 5636 5634 5633 5630 5626 5622 5618 5614 5610 5607 5603 5602 5598 5593 5586 5582 5576 5570
5660 5660 5660 5659 5658 5660 5658 5657 5655 5653 5652 5651 5649 5649 5648 5647 5645 5644 5642 5639 5636 5632 5630 5627 5623 5620 5616 5614 5611 5609 5605 5599 5595 5593 5587 5584 5580 5576 5572 5568 5562 5557 5552
5649 5650 5649 5647 5648 5649 5646 5646 5643 5641 5639 5637 5635 5635 5633 5632 5631 5629 5627 5624 5621 5617 5615 5612 5608 5605 5601 5597 5594 5590 5585 5583 5577 5574 5570 5566 5562 5559 5553 5549 5542 5536 5529
5637 5636 5635 5634 5634 5634 5634 5632 5630 5628 5626 5624 5622 5620 5619 5617 5615 5613 5608 5606 5602 5600 5598 5596 5592 5588 5585 5580 5575 5571 5567 5562 5558 5555 5552 5546 5542 5539 5534 5530 5522 5514 5506
Wind_Speed
27 27 22 24 31 26 35 36 35 35 29 33 29 19 24 20 21 18 20 18 17 15 16 18 20 21 17 16 14 12 11 10 13 14 15 15 16 17 17 19 22 24 24
24 24 24 21 22 29 27 36 39 39 31 36 31 22 24 20 21 20 21 21 18 17 18 22 22 20 18 19 15 16 12 14 15 15 15 15 15 17 20 21 25 26 26
27 25 20 25 24 20 27 33 40 41 33 39 32 24 24 23 23 22 23 20 18 19 20 25 22 22 19 19 21 19 22 24 18 16 16 16 18 21 24 26 27 25 22
27 28 21 23 26 20 25 32 39 41 36 39 33 26 24 25 24 24 22 21 20 22 22 26 24 21 23 21 24 24 24 23 20 19 18 21 23 24 25 26 25 25 25
29 33 24 20 26 29 19 31 40 43 36 39 33 30 26 27 28 25 23 22 21 22 23 27 25 25 25 26 26 26 25 25 21 20 22 24 26 26 24 24 20 26 30
29 32 34 35 31 24 19 22 39 40 39 38 36 33 31 31 29 29 27 23 22 22 23 26 28 27 28 28 26 27 19 21 22 23 25 28 27 23 19 22 25 28 28
23 24 25 20 16 17 23 22 28 39 38 44 42 37 35 35 37 30 26 25 23 21 21 21 22 22 25 24 26 21 18 22 26 27 28 29 28 29 28 27 28 30 32
28 24 19 16 17 18 24 26 25 28 29 35 45 40 35 34 27 24 22 21 23 19 18 16 16 18 18 18 22 23 23 27 28 28 24 28 30 29 30 28 32 32 31
20 21 21 21 21 21 24 23 25 27 28 29 36 31 29 25 24 18 18 12 10 12 13 16 20 18 18 18 21 24 25 28 31 31 25 26 25 28 27 29 32 32 32
19 23 22 23 21 18 21 22 22 23 22 23 27 22 22 21 17 15 14 13 9 10 12 15 16 18 20 20 23 24 27 30 31 35 34 33 32 30 29 30 32 32 33
10 13 15 15 19 18 16 17 17 15 16 20 22 21 20 22 22 21 18 18 17 17 18 19 18 20 22 23 22 23 29 32 36 41 43 37 37 34 33 34 37 39 40
15 16 12 12 15 19 18 19 20 20 21 24 24 22 24 27 23 22 21 22 20 19 19 17 19 20 24 27 29 31 35 33 34 34 38 38 40 38 38 39 41 42 43
14 18 19 18 21 22 23 23 22 22 24 25 27 26 27 29 31 28 27 25 23 25 25 22 24 28 30 31 34 35 38 39 39 37 37 40 41 41 41 41 42 45 48
16 15 17 21 24 26 29 26 24 28 27 31 28 31 32 29 30 29 28 28 28 28 32 24 28 28 32 35 36 38 41 40 42 46 44 47 50 49 49 49 46 47 50
9 11 12 13 12 15 23 27 28 28 29 29 35 34 31 29 31 30 28 30 33 36 34 29 32 34 37 40 42 45 47 48 44 45 44 46 53 51 51 52 52 50 53
10 11 13 15 14 11 12 15 18 21 21 22 25 30 30 31 31 32 33 37 39 37 37 33 37 38 42 44 48 48 52 53 51 48 51 54 50 54 55 59 55 55 55
12 13 13 15 15 15 15 16 18 20 21 24 25 28 30 31 32 35 38 39 37 38 42 40 42 42 47 47 46 50 45 42 42 43 47 44 50 57 59 59 61 64 59
12 13 13 16 17 16 19 19 21 22 22 23 25 28 29 34 34 36 37 37 39 42 44 47 45 44 45 46 47 45 47 45 47 45 44 51 47 49 55 61 64 59 63
13 13 16 18 20 22 22 22 23 25 25 26 29 30 30 33 33 35 36 38 40 43 45 45 45 48 46 46 48 50 51 53 49 51 52 49 49 52 54 62 61 61 61
18 20 20 21 22 22 21 23 24 24 27 28 31 31 32 35 36 38 40 41 41 44 47 48 47 48 48 49 46 50 51 54 56 53 48 52 62 51 54 58 64 62 71
21 23 23 23 25 25 25 26 27 28 30 33 34 35 36 37 40 42 45 44 47 50 52 57 57 55 52 51 52 57 51 53 52 54 54 59 58 63 63 68 62 70 76
26 26 24 26 28 30 29 30 32 32 34 35 35 36 37 39 41 44 46 49 51 52 53 53 52 54 51 53 51 58 55 53 55 59 61 58 55 60 58 68 70 72 77
29 28 26 29 31 31 32 33 35 38 39 40 41 42 42 42 43 44 45 48 50 52 53 53 55 56 58 57 56 55 63 57 64 61 56 66 68 69 65 70 76 69 71
34 34 33 37 34 32 33 34 36 39 38 38 41 42 43 46 48 49 49 50 52 53 55 57 60 62 62 63 64 63 65 65 61 69 66 70 75 68 67 65 72 72 78
41 39 38 43 45 38 38 36 38 41 44 45 45 44 44 44 45 44 47 50 51 52 53 54 58 64 66 67 68 68 68 71 63 64 70 73 73 73 67 71 72 79 82
45 44 44 46 47 44 46 42 45 47 49 51 51 51 53 55 57 58 63 64 63 61 57 60 64 65 68 73 71 63 69 66 65 68 69 63 68 78 77 80 81 81 81
Wind_Direction
208 213 212 221 223 229 227 220 221 228 228 234 236 237 254 254 264 268 262 270 281 275 259 252 249 257 242 245 243 254 251 263 273 276 277 283 288 299 303 308 310 314 312
201 211 223 224 224 228 236 236 222 225 226 237 238 236 254 261 267 269 269 271 270 275 263 250 252 241 241 244 243 245 240 251 266 268 276 285 294 296 303 307 311 314 308
213 208 225 232 229 239 238 239 234 226 235 239 240 237 249 263 264 269 263 265 266 267 260 245 244 235 237 244 246 237 245 260 262 274 281 292 299 299 304 308 313 308 301
219 219 233 246 234 253 247 239 239 227 225 234 239 242 245 259 263 260 264 265 268 265 256 239 250 232 236 241 243 252 259 247 259 270 286 289 290 300 304 310 308 303 303
225 223 226 248 248 263 248 233 225 227 231 235 241 244 249 250 261 264 269 268 268 267 262 245 242 229 235 240 252 255 269 257 262 273 280 289 297 299 305 304 299 301 297
233 232 250 254 249 241 241 237 229 234 241 240 243 245 253 255 251 263 269 270 270 269 257 254 249 234 237 245 250 262 260 256 267 277 284 288 292 295 300 304 289 294 292
237 237 243 236 243 258 254 249 240 243 259 250 245 243 248 259 261 261 269 270 266 258 255 256 246 248 250 246 257 265 270 266 271 280 286 285 290 288 290 295 282 289 291
237 234 235 238 253 253 265 265 261 261 260 259 250 251 255 264 261 261 265 254 252 257 261 252 252 252 252 262 264 269 271 272 274 271 286 290 280 283 287 284 283 284 286
222 229 239 244 236 242 250 260 260 259 251 259 247 255 259 251 260 260 251 243 229 220 226 237 250 254 260 265 264 265 269 270 270 274 289 292 276 276 272 278 279 281 284
235 245 247 246 236 231 230 240 246 245 238 239 244 243 248 246 243 226 225 228 232 240 247 246 241 248 259 259 260 266 274 276 278 279 282 287 285 281 284 288 291 293 289
220 231 234 234 230 222 228 245 245 240 231 233 237 247 238 247 232 220 227 238 250 255 254 256 263 269 266 260 260 264 277 281 282 280 277 279 284 286 287 293 296 298 296
225 217 229 226 227 237 244 244 243 240 237 236 238 246 245 235 228 220 239 247 256 256 258 270 272 273 272 271 278 281 283 290 290 286 277 280 284 285 285 290 291 292 294
225 227 241 244 245 248 242 243 243 239 240 239 240 248 241 240 234 241 244 245 251 257 262 266 275 278 279 271 275 280 284 292 292 286 283 283 282 283 285 286 294 294 296
242 239 245 256 262 259 247 238 235 239 245 230 245 245 241 238 239 238 247 253 261 264 271 275 277 274 275 277 278 284 288 292 293 290 290 288 285 287 288 284 293 296 294
223 226 232 260 271 262 242 238 244 247 251 236 242 243 239 240 241 243 250 256 264 266 269 272 277 276 282 283 285 286 289 288 290 287 282 290 284 283 287 282 289 296 295
244 249 257 259 260 252 243 243 241 237 243 242 240 239 239 243 241 246 254 259 261 267 272 270 271 275 280 285 285 283 288 289 286 282 277 285 285 285 283 286 287 296 295
247 251 255 258 259 261 267 265 257 249 243 238 238 238 238 242 242 249 252 256 261 267 275 276 275 277 286 287 289 287 286 289 287 281 279 279 278 276 284 285 293 292 292
268 259 255 262 260 265 269 269 259 250 249 247 248 249 248 247 249 253 260 266 270 273 277 279 280 282 285 287 289 285 287 286 286 286 280 284 281 279 278 289 290 281 296
274 273 274 272 268 267 269 269 271 258 257 257 259 261 259 259 260 263 265 268 273 273 275 280 284 282 285 284 284 285 285 287 289 281 288 283 286 287 296 297 294 269 280
272 265 263 265 269 269 274 274 270 265 261 265 268 270 269 267 266 266 268 270 273 271 274 275 283 279 280 290 288 282 280 287 286 281 287 291 288 286 300 299 299 282 276
269 273 268 265 264 269 268 266 264 263 265 266 268 271 272 270 269 270 272 274 275 276 276 276 283 283 281 285 288 283 283 288 288 278 291 289 285 278 289 300 289 277 275
269 269 273 269 272 274 268 265 266 266 266 267 269 270 271 271 274 275 275 276 275 275 276 278 282 285 286 286 286 282 290 286 287 287 293 293 287 285 290 296 284 278 273
266 271 273 272 276 276 267 263 264 266 268 270 271 271 272 274 274 275 276 277 280 282 283 284 285 285 285 286 286 288 287 289 295 283 289 287 288 287 289 289 279 281 276
266 266 270 275 272 277 277 269 266 266 269 271 271 272 274 274 275 278 279 280 280 283 285 287 288 286 286 286 287 286 285 287 290 286 288 294 288 284 287 292 283 283 281
275 276 276 276 278 274 273 278 278 278 276 277 278 282 285 285 284 284 286 289 289 287 288 291 295 292 288 286 285 286 288 282 289 287 287 290 288 282 292 292 287 283 283
274 274 274 276 274 269 273 269 274 272 272 274 276 281 283 284 284 285 287 285 285 286 289 291 291 298 296 289 289 283 286 287 288 287 292 285 291 290 291 286 286 286 288